Weather History for Naples, Italy

Change the Weather History Date:

Tuesday, March 19, 2013

  Actual Average Record
Temperature  
Mean Temperature 53 °F -  
Max Temperature 60 °F 63 °F 66 °F (2001)
Min Temperature 46 °F 46 °F 37 °F (1999)
Degree Days  
Heating Degree Days 12    
Growing Degree Days 3 (Base 50)    
Moisture  
Dew Point 43 °F    
Average Humidity 65    
Maximum Humidity 82    
Minimum Humidity 48    
Precipitation  
Precipitation 0.00 in 0.10 in - ()
Sea Level Pressure  
Sea Level Pressure 29.78 in    
Wind  
Wind Speed 7 mph ()    
Max Wind Speed 16 mph    
Max Gust Speed -    
Visibility 6.2 miles    
Events      
Averages and records for this station are not official NWS values.
T = Trace of Precipitation, MM = Missing Value Source: Averaged Metar Reports

Daily Weather History Graph

Daily Weather History Graph

Search for Another Location

Airport:

Trip Planner

Search our weather history database for the weather conditions in past years. The results will help you decide how hot, cold, wet, or windy it might be!

Date:

Astronomy

Mar. 19, 2013 Rise Set
Actual Time 6:07 AM CET 6:13 PM CET
Civil Twilight 5:40 AM CET 6:41 PM CET
Nautical Twilight 5:08 AM CET 7:13 PM CET
Astronomical Twilight 4:36 AM CET 7:45 PM CET
Moon 10:40 AM CET (3/19) 12:49 AM CET (3/19)
Length of Visible Light 13h 00m
Length of Day
12h 05m
Waxing Crescent, 48% of the Moon is Illuminated
Mar 19
Waxing Crescent
Mar 19
First Quarter
Mar 27
Full
Apr 3
Last Quarter
Apr 10
New

Hourly Weather History & Observations

Time (CET) Temp. Dew Point Humidity Pressure Visibility Wind Dir Wind Speed Gust Speed Precip Events Conditions
12:20 AM 51.8 °F 41.0 °F 67% 29.71 in 6.2 mi South 3.5 mph - N/A   Partly Cloudy
12:50 AM 51.8 °F 41.0 °F 67% 29.71 in 6.2 mi SW 2.3 mph - N/A   Partly Cloudy
1:20 AM 51.8 °F 42.8 °F 71% 29.71 in 6.2 mi West 8.1 mph - N/A   Partly Cloudy
1:50 AM 51.8 °F 42.8 °F 71% 29.74 in 6.2 mi WSW 5.8 mph - N/A   Partly Cloudy
2:20 AM 51.8 °F 42.8 °F 71% 29.74 in 6.2 mi SW 3.5 mph - N/A   Partly Cloudy
2:50 AM 51.8 °F 42.8 °F 71% 29.71 in 6.2 mi West 5.8 mph - N/A   Partly Cloudy
3:20 AM 51.8 °F 42.8 °F 71% 29.71 in 6.2 mi SW 4.6 mph - N/A   Partly Cloudy
3:50 AM 51.8 °F 41.0 °F 67% 29.71 in 6.2 mi WSW 9.2 mph - N/A   Partly Cloudy
4:20 AM 50.0 °F 41.0 °F 71% 29.71 in 6.2 mi WSW 6.9 mph - N/A   Partly Cloudy
4:50 AM 53.6 °F 42.8 °F 67% 29.71 in 6.2 mi West 11.5 mph - N/A   Partly Cloudy
5:20 AM 53.6 °F 42.8 °F 67% 29.74 in 6.2 mi West 10.4 mph - N/A   Partly Cloudy
5:50 AM 51.8 °F 42.8 °F 71% 29.74 in - North - - N/A   Unknown
6:00 AM 51.8 °F 42.8 °F 71% 29.74 in - North - - N/A   Unknown
6:20 AM 50.0 °F 42.8 °F 76% 29.74 in 6.2 mi West 6.9 mph - N/A   Partly Cloudy
6:50 AM 51.8 °F 44.6 °F 76% 29.77 in 6.2 mi SSW 4.6 mph - N/A   Partly Cloudy
7:20 AM 53.6 °F 44.6 °F 72% 29.77 in 6.2 mi WSW 11.5 mph - N/A   Partly Cloudy
7:50 AM 55.4 °F 46.4 °F 72% 29.77 in 6.2 mi WSW 9.2 mph - N/A   Partly Cloudy
8:50 AM 57.2 °F 46.4 °F 67% 29.77 in 6.2 mi West 10.4 mph - N/A   Partly Cloudy
9:20 AM 57.2 °F 44.6 °F 63% 29.77 in 6.2 mi West 10.4 mph - N/A   Scattered Clouds
9:50 AM 59.0 °F 44.6 °F 59% 29.77 in 6.2 mi West 10.4 mph - N/A   Partly Cloudy
10:20 AM 59.0 °F 44.6 °F 59% 29.80 in 6.2 mi West 13.8 mph - N/A   Partly Cloudy
10:50 AM 60.8 °F 44.6 °F 55% 29.80 in 6.2 mi West 12.7 mph - N/A   Partly Cloudy
11:20 AM 59.0 °F 44.6 °F 59% 29.80 in 6.2 mi West 15.0 mph - N/A   Partly Cloudy
11:50 AM 60.8 °F 41.0 °F 48% 29.80 in 6.2 mi West 16.1 mph - N/A   Partly Cloudy
12:20 PM 60.8 °F 42.8 °F 52% 29.80 in 6.2 mi West 15.0 mph - N/A   Partly Cloudy
12:50 PM 60.8 °F 41.0 °F 48% 29.80 in 6.2 mi West 15.0 mph - N/A   Partly Cloudy
1:20 PM 60.8 °F 44.6 °F 55% 29.80 in 6.2 mi WSW 13.8 mph - N/A   Partly Cloudy
1:50 PM 60.8 °F 41.0 °F 48% 29.80 in - West 15.0 mph - N/A   Clear
2:20 PM 60.8 °F 42.8 °F 52% 29.80 in - West 13.8 mph - N/A   Clear
2:50 PM 60.8 °F 42.8 °F 52% 29.80 in - WSW 13.8 mph - N/A   Clear
3:20 PM 60.8 °F 41.0 °F 48% 29.80 in 6.2 mi West 12.7 mph - N/A   Partly Cloudy
3:50 PM 59.0 °F 42.8 °F 55% 29.77 in 6.2 mi WSW 12.7 mph - N/A   Partly Cloudy
4:20 PM 59.0 °F 42.8 °F 55% 29.80 in 6.2 mi West 11.5 mph - N/A   Partly Cloudy
4:50 PM 57.2 °F 41.0 °F 55% 29.80 in - WSW 12.7 mph - N/A   Clear
5:20 PM 57.2 °F 41.0 °F 55% 29.80 in - WSW 12.7 mph - N/A   Clear
5:50 PM 55.4 °F 41.0 °F 58% 29.80 in - WSW 8.1 mph - N/A   Clear
6:20 PM 55.4 °F 41.0 °F 58% 29.80 in - West 3.5 mph - N/A   Clear
6:50 PM 53.6 °F 42.8 °F 67% 29.80 in - SW 8.1 mph - N/A   Clear
7:20 PM 51.8 °F 42.8 °F 71% 29.80 in - Variable 1.2 mph - N/A   Clear
7:50 PM 51.8 °F 42.8 °F 71% 29.83 in - Calm Calm - N/A   Clear
8:20 PM 51.8 °F 42.8 °F 71% 29.83 in - Variable 2.3 mph - N/A   Clear
8:50 PM 51.8 °F 42.8 °F 71% 29.83 in - ESE 3.5 mph - N/A   Clear
9:20 PM 51.8 °F 42.8 °F 71% 29.83 in - Variable 2.3 mph - N/A   Clear
9:50 PM 50.0 °F 42.8 °F 76% 29.83 in - Variable 1.2 mph - N/A   Clear
10:20 PM 48.2 °F 42.8 °F 82% 29.83 in - West 2.3 mph - N/A   Clear
10:50 PM 50.0 °F 41.0 °F 71% 29.83 in - NE 3.5 mph - N/A   Clear
11:20 PM 46.4 °F 41.0 °F 81% 29.83 in - Variable 2.3 mph - N/A   Clear
11:50 PM 46.4 °F 41.0 °F 81% 29.83 in - West 2.3 mph - N/A   Clear